THOR ABLESTAR DEB, 530

Orbit data source: Space-Track

THOR ABLESTAR DEB, 530 is space debris in LEO originally from a launch on Thu, 29 Jun 1961 UTC launched from the Air Force Eastern Test Range (AFETR). Debris objects in space refer to the collection of defunct objects orbiting the Earth. Examples of debris include non-operational satellites, rocket bodies, and fragments generated from explosions, collisions, or faulty payload assembly.

Loading next visibility...
Identifier
530, 1961-015FU
Orbit
LEO
Last TLE update
13 hours ago
Origin
Manufacturer
Unknown
Mission
Spacecraft
Bus & Motor
Unknown
Mass
Unknown
Launch date (UTC)
1961-06-29 (64 years ago)
Launch vehicle
Unknown
Launch site
Air Force Eastern Test Range (AFETR)
Object type
Payload
Rocket body
Debris
Shape & HBR
Unknown
Radar Cross Section
Small (<0.1 m²)

Expand to show TLE details & history

TLE from 13 hours ago
0 THOR ABLESTAR DEB
1 00530U 61015FU  25128.73394147  .00000195  00000-0  18356-3 0  9998
2 00530  66.8796 245.7483 0072492 102.1987 258.7228 13.99238789251031
Epoch: 2025-05-08T17:36Z
Definitive object data (Epoch: 2025-05-08T17:36:52.542Z)
Latitude
-0.00006°
Longitude
114.72916°
Altitude
909.204 km
Speed
7.392 km/s
True Right ascension
16h 22m 59s
True Declination
0° 00' 00"
Sunlit
Object was in full shadow at TLE epoch
Visualization TLE readout
Latitude
54.98892°
Longitude
-103.88363°
Altitude
853.823 km
Speed
7.457 km/s
Apparent Right ascension
02h 05m 12s
Apparent Declination
11° 26' 38"
Sunlit
Object is in daylight
Visualization observer readout
Local Sidereal Time
14:19:21
Azimuth
4.431° NNE
Elevation
-38.535°
Doppler factor
1
Orbital elements
Apogee altitude
947.533 km
Perigee altitude
842.087 km
Semi-major axis
7,272.947 km
Eccentricity
0.0072492
Inclination
66.8796°
RAAN
245.7483°
Arg. of periapsis
102.1987°
True anomaly
257.90961°
Mean anomaly
258.7228°
Eccentric anomaly
258.31606°
Mean motion
3.49927 °/min
BSTAR
0.00018356
Orbital period
102.88 mins
Loading maneuver chart data...
Loading SW <> Apogee altitude chart data...

THOR ABLESTAR DEB Visibility forecast

Observer location: undefined°, undefined°

Span
Click to sort rows by Start time (UTC) header in descending order
Start Az.
Max El. time (UTC)
Max El. Az.
Max El.
End time (UTC)
End Az.
10 mins2025-05-09 09:10:33.508Z196.34° SSW2025-05-09 09:15:33.508Z105.859° ESE43.054°2025-05-09 09:20:33.508Z34.407° NE
7 mins2025-05-09 10:58:33.508Z275.529° WNW2025-05-09 11:01:33.508Z312.307° NW19.529°2025-05-09 11:05:33.508Z359.662° N
9 mins2025-05-09 18:11:33.508Z341.782° N2025-05-09 18:15:33.508Z52.291° ENE41.091°2025-05-09 18:20:33.508Z136.815° SSE
6 mins2025-05-09 19:58:33.508Z284.002° WNW2025-05-09 20:00:33.508Z259.231° W17.913°2025-05-09 20:04:33.508Z213.295° SW
|